This demonstration page uses our WeatherBlox Daily Observations layout. Learn more.

Left ArrowRight Arrow

39.01783, -85.05884

Hourly Observations for September 28, 2021

Temp ( °F °C ) Dew Point ( °F °C ) Humidity (%) Winds ( mph kmh ) Pressure ( in mb ) Visibility ( mi km ) Precip ( " mm )
12:52 am 00:52 Partly Cloudy 68 20 60 15.6 76 76 SSW 8 13 29.92 1013 10 16 N/A
1:52 am 01:52 Mostly Cloudy 67 19.4 59 15 76 76 SSW 8 13 29.91 1013 10 16 N/A
2:52 am 02:52 Mostly Cloudy 68 20 60 15.6 76 76 SW 8 13 29.91 1013 10 16 N/A
3:27 am 03:27 Mostly Cloudy with Nearby Thunderstorms 68 20 59 15 73 73 SSW 9 15 29.92 1013 10 16 N/A
3:35 am 03:35 Mostly Cloudy with Thunderstorms 68 20 59 15 73 73 SW 8 13 29.92 1013 10 16 N/A
3:52 am 03:52 Mostly Cloudy with Thunderstorms 68 20 59 15 73 73 SW 8 13 29.91 1013 10 16 N/A
4:27 am 04:27 Cloudy with Nearby Thunderstorms 67 19.4 59 15 76 76 SSW 8 13 29.92 1013 10 16 N/A
4:30 am 04:30 Cloudy 67 19.4 59 15 76 76 SSW 8 13 29.92 1013 10 16 N/A
4:38 am 04:38 Cloudy with Nearby Thunderstorms 67 19.4 59 15 76 76 SSW 8 13 29.92 1013 10 16 N/A
4:52 am 04:52 Cloudy 66 18.9 59 15 78 78 SSW 7 11 29.91 1013 10 16 N/A
5:52 am 05:52 Mostly Cloudy 66 18.9 59 15 78 78 SSW 10 17 29.91 1013 10 16 N/A
6:52 am 06:52 Mostly Cloudy 65 18.3 59 15 81 81 SW 8 13 29.93 1014 10 16 N/A
7:52 am 07:52 Mostly Cloudy 65 18.3 59 15 81 81 SW 7 11 29.93 1014 10 16 N/A
8:52 am 08:52 Mostly Cloudy 65 18.3 59 15 81 81 SW 6 9 29.95 1014 10 16 N/A
9:52 am 09:52 Mostly Sunny 69 20.6 60 15.6 73 73 WSW 6 9 29.95 1014 10 16 N/A
10:52 am 10:52 Sunny 73 22.8 61 16.1 66 66 W 10 17 29.96 1015 10 16 N/A
11:52 am 11:52 Sunny 76 24.4 62 16.7 62 62 WSW 8 13 29.95 1014 9 14 N/A
12:52 pm 12:52 Sunny 78 25.6 61 16.1 56 56 W 8 13 29.94 1014 10 16 N/A
1:52 pm 13:52 Sunny 81 27.2 61 16.1 51 51 W 10 17 29.93 1014 9 14 N/A
2:52 pm 14:52 Mostly Sunny 83 28.3 62 16.7 49 49 W 12 19 29.91 1013 10 16 N/A
3:52 pm 15:52 Mostly Sunny 84 28.9 62 16.7 48 48 WNW 6 9 29.91 1013 10 16 N/A
4:52 pm 16:52 Mostly Sunny 84 28.9 61 16.1 46 46 VRB 6 9 29.90 1013 10 16 N/A
5:52 pm 17:52 Mostly Sunny 81 27.2 62 16.7 53 53 W 5 7 29.91 1013 10 16 N/A
6:52 pm 18:52 Mostly Sunny 79 26.1 62 16.7 56 56 NNW 3 6 29.91 1013 9 14 N/A
7:52 pm 19:52 Mostly Clear 75 23.9 62 16.7 64 64 WNW 3 6 29.92 1013 10 16 N/A
8:52 pm 20:52 Clear 70 21.1 62 16.7 76 76 N N/A 29.93 1014 10 16 N/A
9:52 pm 21:52 Partly Cloudy 72 22.2 62 16.7 71 71 N 5 7 29.95 1014 10 16 N/A
10:52 pm 22:52 Mostly Clear 73 22.8 62 16.7 69 69 ENE 12 19 29.96 1014 8 13 N/A
11:52 pm 23:52 Clear 70 21.1 61 16.1 73 73 E 7 11 29.96 1014 10 16 N/A

Powered by AerisWeather